SCOUT A DEB, 2989

Orbit data source: Space-Track

SCOUT A DEB, 2989 is space debris in LEO originally from a launch on Fri, 28 Jan 1966 UTC launched from the Air Force Western Test Range (AFWTR). Debris objects in space refer to the collection of defunct objects orbiting the Earth. Examples of debris include non-operational satellites, rocket bodies, and fragments generated from explosions, collisions, or faulty payload assembly.

Loading next visibility...
Identifier
2989, 1966-005F
Orbit
LEO
Country
Flag of USUS
Related business
Manufacturer
Unknown
Mission
Spacecraft
Bus & Motor
Unknown
Mass
Unknown
Launch date (UTC)
1966-01-28 (61 years ago)
Launch vehicle
Unknown
Launch site
Air Force Western Test Range (AFWTR)
Object type
Payload
Rocket body
Debris
Shape & HBR
Unknown shape, 0.1 m
Radar Cross Section
Medium (>0.1 m² and <1 m²)

Expand to show TLE details & history
Last TLE update: 14 hours ago

TLE from 14 hours ago
0 SCOUT A DEB
1 02989U 66005F   26236.06919938  .00000494  00000-0  30704-3 0  9993
2 02989  89.6583 281.7348 0109723  39.5104 321.4010 14.00713613  6492
Epoch: 2026-08-24T01:39Z
TLE epoch observation values (Epoch: 2026-08-24T01:39:38.826Z)
Latitude
0.00004°
Longitude
-75.53317°
Altitude
832.347 km
Speed
7.468 km/s
True Right ascension
18h 46m 56s
True Declination
0° 00' 00"
Sunlit
Object was in full shadow at epoch
Visualization orbit readout
Latitude
Unknown
Longitude
Unknown
Altitude
Unknown
Speed
Unknown
Apparent Right ascension
Unknown
Apparent Declination
Unknown
Sunlit
N/A
Visualization observer readout
Local Sidereal Time
07:11:07
Azimuth
Unknown
Elevation
Unknown
Doppler factor
Unknown
Orbital elements
Apogee altitude
968.031 km
Perigee altitude
808.572 km
Semi-major axis
7,266.438 km
Eccentricity
0.01097
Inclination
89.6583°
RAAN
281.7348°
Arg. of periapsis
39.5104°
True anomaly
320.60812°
Mean anomaly
321.401°
Eccentric anomaly
321.00541°
Mean motion
3.50397 °/min
Orbital period
102.74 mins
BSTAR
0.00030704
Loading maneuver chart data...
Computing Atmospheric mass density...
Loading historical data...
Loading historical data...
Loading historical data...
Loading historical data...
Loading historical data...
Loading historical data...
Loading historical data...

Documentation

Showing up to 5 results
|